Skip Page Navigation
NASA JPL Caltech
NASA Logo - Jet Propulsion Laboratory + View the NASA Portal
+ Near-Earth Object (NEO) Program
Search JPL
JPL Home Earth Solar System Stars & Galaxies Technology
JPL Solar System Dynamics
BODIES ORBITS EPHEMERIDES TOOLS PHYSICAL DATA DISCOVERY FAQ SITE MAP
JPL Small-Body Database Browser
Search: [ help ]  
30441 Curly (2000 MX)
Classification: Main-belt Asteroid          SPK-ID: 2030441
Ephemeris | Orbit Diagram | Orbital Elements | Physical Parameters | Discovery Circumstances | Close-Approach Data ]

[ show orbit diagram ]
Orbital Elements at Epoch 2457000.5 (2014-Dec-09.0) TDB
Reference: JPL 10 (heliocentric ecliptic J2000)
 Element Value Uncertainty (1-sigma)   Units 
e .1566827833119617 7.3194e-08  
a 3.133302008455209 3.4714e-08 AU
q 2.642367528813486 2.3076e-07 AU
i 6.45532142578163 6.188e-06 deg
node 71.97143437451014 6.6978e-05 deg
peri 256.0298479429671 7.0367e-05 deg
M 174.0502958316063 2.6877e-05 deg
tp 2456021.068477350931
(2012-Apr-03.56847735)
0.00014478 JED
period 2025.824469122424
5.55
3.3667e-05
9.218e-08
d
yr
n .1777054258585148 2.9533e-09 deg/d
Q 3.624236488096931 4.0154e-08 AU
  Orbit Determination Parameters
   # obs. used (total)      761  
   data-arc span      7624 days (20.87 yr)  
   first obs. used      1994-05-14  
   last obs. used      2015-03-29  
   planetary ephem.      DE431  
   SB-pert. ephem.      SB431-BIG16  
   condition code      0  
   fit RMS      .54654  
   data source      ORB  
   producer      Otto Matic  
   solution date      2015-Apr-07 17:32:24  

Additional Information
 Earth MOID = 1.64122 AU 
 T_jup = 3.184 
[ show covariance matrix ]

Ephemeris | Orbit Diagram | Orbital Elements | Physical Parameters | Discovery Circumstances | Close-Approach Data ]

Physical Parameter Table
Parameter Symbol Value Units Sigma Reference Notes
absolute magnitude H 13.8 mag n/a MPO253566  

30441 Curly           Discovered 2000 June 24 by J. Broughton at Reedy Creek Observatory.
Brooklyn-born Curly Howard (Jerome Horwitz, 1903-1952) of Three Stooges fame was one of the greats of comedy. Generally forgetful of his lines, he would ad-lib much of the time.
NOTE: some special characters may not display properly (any characters within {} are an attempt to place the proper accent above a character)
Reference: 20020427/MPCPages.arcLast Updated: 2003-10-02

[ show close-approach data ]
Ephemeris | Orbit Diagram | Orbital Elements | Physical Parameters | Discovery Circumstances | Close-Approach Data ]
ABOUT SSD CREDITS/AWARDS PRIVACY/COPYRIGHT GLOSSARY LINKS
FirstGov 2015-May-29 10:20 UT
(server date/time)  
NASA Home Page
Site Manager:   Ryan S. Park
Webmaster  Alan B. Chamberlin